Weather History for Crestview, FL

Change the Weather History Date:

Sunday, February 10, 2013

  Actual Average Record
Temperature  
Mean Temperature 56 °F -  
Max Temperature 69 °F - - ()
Min Temperature 42 °F - - ()
Degree Days  
Heating Degree Days 10    
Growing Degree Days 6 (Base 50)    
Moisture  
Dew Point 58 °F    
Average Humidity 86    
Maximum Humidity 97    
Minimum Humidity 73    
Precipitation  
Precipitation 0.02 in - - ()
Sea Level Pressure  
Sea Level Pressure 30.10 in    
Wind  
Wind Speed 11 mph (SE)    
Max Wind Speed 21 mph    
Max Gust Speed 32 mph    
Visibility 10 miles    
Events Rain    
T = Trace of Precipitation, MM = Missing Value Source: NWS Daily Summary

Daily Weather History Graph

Daily Weather History Graph

Search for Another Location

Airport:

Trip Planner

Search our weather history database for the weather conditions in past years. The results will help you decide how hot, cold, wet, or windy it might be!

Date:

Astronomy

Feb. 10, 2013 Rise Set
Actual Time 6:30 AM CST 5:30 PM CST
Civil Twilight 6:05 AM CST 5:55 PM CST
Nautical Twilight 5:37 AM CST 6:23 PM CST
Astronomical Twilight 5:09 AM CST 6:51 PM CST
Moon 6:25 AM CST (2/10) 6:13 PM CST (2/10)
Length of Visible Light 11h 49m
Length of Day
10h 59m
New Moon, 0% of the Moon is Illuminated
Feb 10
New Moon
Feb 17
First Quarter
Feb 25
Full
Mar 4
Last Quarter
Mar 11
New

Hourly Weather History & Observations

Time (CST) Temp. Dew Point Humidity Pressure Visibility Wind Dir Wind Speed Gust Speed Precip Events Conditions
12:58 AM 42.8 °F 41.5 °F 95% 30.16 in 10.0 mi ENE 2.3 mph - N/A   Clear
1:58 AM 43.3 °F 42.4 °F 97% 30.15 in 10.0 mi NE 2.3 mph - N/A   Clear
2:58 AM 49.8 °F 45.7 °F 86% 30.14 in 10.0 mi ESE 5.8 mph - N/A   Clear
3:58 AM 49.8 °F 46.6 °F 89% 30.16 in 10.0 mi East 6.9 mph - N/A   Clear
4:58 AM 49.8 °F 46.9 °F 90% 30.15 in 10.0 mi East 6.9 mph - N/A   Clear
5:58 AM 51.1 °F 47.8 °F 89% 30.15 in 10.0 mi East 6.9 mph - N/A   Clear
6:58 AM 52.2 °F 48.2 °F 86% 30.13 in 10.0 mi ESE 10.4 mph - N/A   Clear
7:58 AM 55.4 °F 50.0 °F 82% 30.14 in 10.0 mi SE 12.7 mph 20.7 mph N/A   Clear
8:58 AM 59.4 °F 52.5 °F 78% 30.16 in 10.0 mi ESE 12.7 mph - N/A   Mostly Cloudy
9:13 AM 59.0 °F 53.6 °F 82% 30.17 in 10.0 mi SE 10.4 mph 18.4 mph N/A   Mostly Cloudy
9:58 AM 62.1 °F 55.0 °F 78% 30.17 in 10.0 mi SE 11.5 mph 20.7 mph N/A   Overcast
10:03 AM 62.6 °F 55.4 °F 77% 30.17 in 10.0 mi SE 12.7 mph 20.7 mph N/A   Overcast
10:18 AM 62.6 °F 55.4 °F 77% 30.16 in 10.0 mi SE 12.7 mph 19.6 mph N/A   Overcast
10:58 AM 64.2 °F 57.0 °F 77% 30.16 in 10.0 mi SSE 11.5 mph 23.0 mph N/A   Overcast
11:30 AM 66.2 °F 59.0 °F 78% 30.12 in 10.0 mi SE 19.6 mph 32.2 mph N/A   Mostly Cloudy
11:38 AM 66.2 °F 59.0 °F 78% 30.12 in 10.0 mi SE 18.4 mph 28.8 mph N/A   Scattered Clouds
11:43 AM 68.0 °F 59.0 °F 73% 30.11 in 10.0 mi SE 16.1 mph 28.8 mph N/A   Mostly Cloudy
11:55 AM 67.1 °F 59.0 °F 75% 30.12 in 10.0 mi SE 19.6 mph 31.1 mph N/A   Mostly Cloudy
12:55 PM 67.1 °F 60.1 °F 78% 30.08 in 10.0 mi SSE 15.0 mph 25.3 mph N/A   Mostly Cloudy
1:58 PM 67.6 °F 60.8 °F 79% 30.06 in 10.0 mi SE 15.0 mph 25.3 mph N/A   Overcast
2:58 PM 68.2 °F 61.7 °F 80% 30.04 in 10.0 mi SSE 20.7 mph 28.8 mph N/A   Overcast
5:02 PM 66.2 °F 62.6 °F 88% 30.04 in 10.0 mi SSE 16.1 mph 24.2 mph N/A Rain Light Rain
5:10 PM 66.2 °F 62.6 °F 88% 30.04 in 10.0 mi SSE 18.4 mph 28.8 mph N/A   Overcast
5:13 PM 66.2 °F 62.6 °F 88% 30.04 in 10.0 mi SSE 19.6 mph 28.8 mph N/A Rain Light Rain
5:43 PM 66.2 °F 62.6 °F 88% 30.04 in 10.0 mi SSE 17.3 mph 26.5 mph N/A   Overcast
5:58 PM 65.8 °F 63.1 °F 91% 30.03 in 10.0 mi SSE 17.3 mph 25.3 mph 0.00 in   Overcast
5:59 PM 66.2 °F 62.6 °F 88% 30.04 in 8.0 mi SE 16.1 mph 25.3 mph N/A Rain Light Rain
6:21 PM 66.2 °F 64.4 °F 94% 30.05 in 10.0 mi SSE 18.4 mph 24.2 mph N/A   Overcast
6:58 PM 66.0 °F 64.6 °F 95% 30.04 in 10.0 mi SSE 18.4 mph 26.5 mph 0.02 in   Overcast
7:24 PM 66.2 °F 64.4 °F 94% 30.04 in 10.0 mi SSW 15.0 mph 23.0 mph N/A   Overcast
8:58 PM 67.8 °F 66.2 °F 95% 30.05 in 10.0 mi South 15.0 mph - N/A   Overcast
10:58 PM 69.1 °F 67.6 °F 95% 30.06 in 10.0 mi South 15.0 mph 24.2 mph N/A   Overcast
11:19 PM 69.8 °F 68.0 °F 94% 30.05 in 10.0 mi South 18.4 mph 27.6 mph N/A Rain Light Rain
11:29 PM 69.8 °F 68.0 °F 94% 30.04 in 10.0 mi South 18.4 mph 28.8 mph N/A   Overcast
11:45 PM 69.8 °F 68.0 °F 94% 30.05 in 10.0 mi South 19.6 mph 26.5 mph N/A Rain Light Rain
11:55 PM 69.8 °F 68.0 °F 94% 30.05 in 10.0 mi South 18.4 mph 26.5 mph N/A   Overcast
11:58 PM 69.8 °F 68.0 °F 94% 30.05 in 10.0 mi South 19.6 mph 26.5 mph 0.00 in   Overcast